Flag for Canada Weather past 2 weeks in Igloolik, Nunavut Territory, Canada

Now
37 °F

Overcast.


Feels Like: 29 °F
Forecast: 37 / 50 °F
Wind: 13 mph from North

Location: Hall Beach

Current Time: Aug 31, 2014 at 3:31:07 AM

Latest Report: Aug 31, 2014 at 3:00 AM


Visibility: 9 mi

Pressure: 29.64 "Hg

Humidity: 87%

Dew point: 34 °F

Location of IgloolikLocation

Historic Weather in Igloolik — Graph

°F

Igloolik temperature yesterday

Maximum temperature yesterday: 43 °F (at 7:00 PM)
Minimum temperature yesterday: 37 °F (at 2:00 AM)
Average temperature yesterday: 39 °F

Past Weeks' High & Low Weather Summary

 TemperatureHumidityPressure
High48 °F (Aug 16, 2:00 PM)100% (Aug 17, 5:00 AM)30.28 "Hg (Aug 17, 5:00 AM)
Low32 °F (Aug 17, 3:00 AM)62% (Aug 16, 12:00 PM)29.27 "Hg (Aug 19, 5:59 AM)
Average39 °F88%29.85 "Hg
* Reported Aug 16 2:00 AM — Aug 31 2:00 AM, Igloolik, Weather by CustomWeather, © 2014

Note: Actual official high and low records may vary slightly from our data, if they occured in-between our weather recording intervals... More about our weather records

Advertising

Igloolik weather history for previous 24 hours

 ConditionsComfort  
Time TempWeatherWind HumidityBarometerVisibility
2:00 AM
Aug 31
39 °FOvercast.15 mph81%29.63 "Hg9 mi
1:00 AM39 °FOvercast.14 mph81%29.62 "Hg9 mi
12:00 AM39 °FOvercast.14 mph81%29.62 "Hg9 mi
11:00 PM
Aug 30
39 °FClear.16 mph81%29.62 "Hg9 mi
10:00 PM39 °FPassing clouds.14 mph81%29.63 "Hg9 mi
9:00 PM41 °FClear.14 mph76%29.63 "Hg9 mi
8:00 PM43 °FBroken clouds.12 mph76%29.63 "Hg15 mi
7:00 PM43 °FBroken clouds.10 mph71%29.63 "Hg15 mi
6:00 PM41 °FPartly sunny.9 mph76%29.62 "Hg15 mi
5:00 PM41 °FBroken clouds.12 mph76%29.62 "Hg15 mi
4:00 PM41 °FBroken clouds.10 mph76%29.62 "Hg15 mi
3:00 PM39 °FBroken clouds.12 mph81%29.62 "Hg15 mi
2:00 PM39 °FBroken clouds.12 mph81%29.61 "Hg15 mi
1:00 PM39 °FPartly sunny.14 mph81%29.60 "Hg15 mi
12:00 PM41 °FBroken clouds.15 mph81%29.59 "Hg15 mi
11:00 AM41 °FBroken clouds.15 mph81%29.59 "Hg15 mi
10:00 AM39 °FMostly cloudy.16 mph81%29.59 "Hg15 mi
9:00 AM37 °FMostly cloudy.15 mph87%29.58 "Hg15 mi
8:00 AM37 °FLight rain. More clouds than sun.16 mph87%29.58 "Hg15 mi
7:56 AM37 °FOvercast.16 mph81%29.57 "Hg9 mi
7:00 AM37 °FOvercast.14 mph87%29.57 "Hg9 mi
6:00 AM37 °FMore clouds than sun.15 mph87%29.56 "Hg9 mi
5:00 AM37 °FMostly cloudy.14 mph87%29.56 "Hg9 mi
4:00 AM37 °FLight rain. Overcast.16 mph87%29.55 "Hg9 mi
3:00 AM37 °FLight rain. Overcast.16 mph87%29.55 "Hg9 mi
Weather by CustomWeather, © 2014

See weather overviewHow to use our weather pages